APRIZESAT 4

Last updated on Mon Sep 07 2026 00:03:16 GMT+0000 (Coordinated Universal Time)

1 35684U 09041D 26249.44235408 .00000357 00000+0 49085-4 0 9997 2 35684 98.1356 326.3602 0044337 59.0443 301.5116 14.83980529923413
UTC large
Height (km)
Speed (km/s)
/
Latitude / Longitude
Inclination (degrees)
Orbital Period (minutes)
Azimuth
Elevation
Range (km)
Doppler Factor

Next 0 passes for location: London (51.5072 / 0.1276)

No passes found over London.
APRIZESAT 4